Visibility
15.0 15.0 15.0 15.0 15.0 15.0 12.5 4.7 15.0 15.0 15.0 15.0 15.0 15.0 15.0 15.0 15.0 15.0 15.0 15.0 15.0 15.0 15.0 15.0 15.0 15.0 15.0 15.0 15.0 15.0 15.0 15.0 15.0 15.0 15.0 15.0 15.0 15.0 15.0 15.0 15.0 15.0 15.0
15.0 15.0 15.0 15.0 15.0 15.0 15.0 14.1 15.0 15.0 15.0 15.0 15.0 15.0 15.0 15.0 15.0 15.0 15.0 15.0 15.0 15.0 15.0 15.0 15.0 15.0 15.0 15.0 15.0 15.0 15.0 15.0 15.0 15.0 15.0 15.0 15.0 15.0 15.0 15.0 15.0 15.0 15.0
15.0 13.2 11.6 12.6 12.5 13.7 15.0 15.0 15.0 15.0 15.0 15.0 15.0 15.0 15.0 15.0 15.0 15.0 15.0 12.8 6.2 9.3 15.0 15.0 15.0 15.0 15.0 15.0 15.0 15.0 15.0 15.0 15.0 15.0 15.0 15.0 15.0 15.0 15.0 15.0 15.0 15.0 15.0
15.0 15.0 15.0 15.0 15.0 15.0 15.0 12.6 15.0 13.2 15.0 15.0 15.0 14.4 15.0 15.0 15.0 15.0 14.8 11.8 15.0 15.0 15.0 15.0 15.0 15.0 15.0 15.0 15.0 15.0 15.0 15.0 15.0 15.0 15.0 15.0 15.0 15.0 15.0 15.0 15.0 15.0 15.0
15.0 15.0 5.4 15.0 15.0 13.8 15.0 15.0 15.0 15.0 15.0 15.0 15.0 15.0 15.0 15.0 14.3 15.0 15.0 15.0 15.0 15.0 15.0 15.0 15.0 15.0 15.0 15.0 15.0 15.0 15.0 15.0 15.0 15.0 15.0 15.0 15.0 15.0 15.0 15.0 15.0 15.0 15.0
15.0 15.0 15.0 15.0 15.0 15.0 15.0 15.0 15.0 15.0 15.0 15.0 15.0 15.0 15.0 15.0 15.0 15.0 0.5 15.0 15.0 15.0 15.0 15.0 15.0 15.0 15.0 15.0 15.0 15.0 15.0 15.0 15.0 15.0 15.0 15.0 15.0 15.0 15.0 15.0 15.0 15.0 15.0
8.2 15.0 15.0 15.0 15.0 15.0 15.0 15.0 15.0 15.0 15.0 15.0 15.0 15.0 15.0 15.0 15.0 15.0 15.0 15.0 15.0 15.0 15.0 15.0 15.0 15.0 15.0 15.0 15.0 15.0 15.0 15.0 15.0 15.0 15.0 15.0 15.0 15.0 15.0 15.0 15.0 15.0 15.0
15.0 15.0 15.0 15.0 15.0 15.0 15.0 15.0 15.0 15.0 15.0 15.0 15.0 15.0 15.0 15.0 15.0 15.0 15.0 15.0 15.0 15.0 15.0 15.0 15.0 15.0 15.0 15.0 15.0 15.0 14.2 15.0 15.0 15.0 15.0 15.0 15.0 15.0 15.0 15.0 15.0 15.0 15.0
15.0 15.0 15.0 15.0 15.0 15.0 15.0 15.0 15.0 15.0 15.0 15.0 15.0 15.0 15.0 15.0 15.0 15.0 1.2 15.0 15.0 15.0 15.0 15.0 15.0 15.0 15.0 15.0 15.0 15.0 15.0 15.0 15.0 12.2 15.0 15.0 15.0 15.0 15.0 15.0 15.0 15.0 15.0
15.0 15.0 15.0 15.0 15.0 15.0 15.0 15.0 15.0 15.0 15.0 15.0 15.0 15.0 15.0 15.0 15.0 15.0 15.0 15.0 15.0 15.0 15.0 15.0 15.0 15.0 15.0 15.0 15.0 15.0 15.0 15.0 15.0 10.8 6.8 14.4 15.0 15.0 15.0 15.0 15.0 15.0 15.0
15.0 15.0 15.0 15.0 15.0 15.0 15.0 15.0 15.0 15.0 15.0 15.0 15.0 15.0 15.0 15.0 15.0 15.0 15.0 15.0 15.0 15.0 15.0 15.0 15.0 15.0 15.0 15.0 10.9 9.8 12.2 15.0 15.0 15.0 10.8 7.7 15.0 15.0 15.0 15.0 15.0 15.0 15.0
15.0 15.0 15.0 15.0 15.0 15.0 15.0 15.0 15.0 15.0 15.0 15.0 15.0 15.0 15.0 15.0 15.0 15.0 15.0 15.0 15.0 15.0 15.0 15.0 15.0 15.0 15.0 15.0 15.0 9.4 0.1 5.9 15.0 15.0 0.1 0.1 0.8 14.7 15.0 15.0 15.0 15.0 15.0
15.0 15.0 15.0 15.0 15.0 15.0 15.0 15.0 15.0 15.0 15.0 15.0 15.0 15.0 15.0 15.0 15.0 15.0 15.0 15.0 15.0 15.0 15.0 15.0 15.0 15.0 15.0 15.0 15.0 15.0 0.1 0.2 0.0 0.6 0.1 2.6 15.0 15.0 14.9 15.0 10.7 10.0 15.0
15.0 15.0 15.0 15.0 15.0 15.0 15.0 15.0 15.0 15.0 15.0 15.0 15.0 15.0 15.0 15.0 15.0 15.0 15.0 15.0 15.0 15.0 15.0 15.0 15.0 15.0 15.0 15.0 15.0 15.0 14.2 0.4 0.0 0.0 1.2 4.6 13.7 0.0 0.0 7.5 0.1 15.0 15.0
15.0 15.0 15.0 15.0 15.0 15.0 15.0 15.0 15.0 15.0 15.0 15.0 15.0 15.0 15.0 15.0 15.0 15.0 15.0 15.0 15.0 15.0 15.0 15.0 15.0 7.1 9.3 11.4 15.0 15.0 14.6 10.7 0.0 0.1 11.4 15.0 0.9 1.2 2.8 5.3 6.6 8.0 11.6
15.0 15.0 15.0 15.0 15.0 15.0 15.0 15.0 15.0 15.0 15.0 15.0 15.0 15.0 15.0 15.0 15.0 15.0 15.0 15.0 15.0 15.0 15.0 15.0 15.0 15.0 4.5 9.8 2.7 3.2 4.1 0.0 0.0 10.1 13.6 11.4 12.9 0.0 0.7 5.3 3.6 0.8 7.5
15.0 15.0 15.0 15.0 15.0 15.0 15.0 15.0 15.0 15.0 15.0 15.0 15.0 15.0 15.0 15.0 15.0 15.0 15.0 15.0 15.0 15.0 15.0 15.0 14.8 2.8 3.9 6.3 7.3 15.0 0.1 0.0 0.2 10.7 15.0 15.0 2.4 1.3 0.1 0.2 0.4 0.7 7.2
15.0 15.0 15.0 15.0 15.0 15.0 15.0 15.0 15.0 15.0 15.0 15.0 15.0 15.0 15.0 15.0 15.0 15.0 15.0 15.0 15.0 15.0 15.0 15.0 15.0 8.2 4.1 13.0 5.5 3.8 7.4 0.1 3.2 12.8 1.1 11.6 14.6 2.4 0.1 0.2 0.8 0.3 5.7
15.0 15.0 15.0 15.0 15.0 15.0 15.0 15.0 15.0 15.0 15.0 15.0 15.0 15.0 15.0 15.0 15.0 15.0 15.0 15.0 15.0 15.0 15.0 15.0 15.0 15.0 15.0 4.4 2.1 2.9 0.8 0.2 0.1 0.0 0.8 1.9 0.1 3.4 0.5 1.0 0.2 0.7 10.1
6.6 15.0 15.0 15.0 15.0 15.0 15.0 15.0 15.0 15.0 15.0 15.0 15.0 15.0 15.0 15.0 15.0 15.0 15.0 14.9 10.4 12.0 13.0 15.0 13.2 14.3 3.4 2.7 2.1 2.3 2.8 0.4 0.2 0.3 0.0 0.1 0.0 4.3 0.6 0.1 0.2 0.3 8.3
15.0 15.0 15.0 15.0 15.0 15.0 15.0 15.0 15.0 15.0 15.0 15.0 15.0 15.0 15.0 15.0 15.0 14.3 15.0 15.0 11.7 10.4 10.5 7.0 10.6 3.0 3.8 6.2 11.1 2.2 5.9 1.7 0.4 0.1 0.4 0.1 0.0 4.5 1.9 0.2 0.1 0.3 4.6
15.0 15.0 15.0 15.0 15.0 15.0 15.0 15.0 15.0 15.0 15.0 15.0 15.0 15.0 15.0 15.0 11.6 14.0 15.0 14.1 10.5 8.4 8.0 9.1 10.5 6.1 6.8 4.6 1.6 0.9 2.4 2.3 0.6 0.2 0.1 0.2 0.5 0.2 11.5 0.1 0.1 0.2 12.8
15.0 15.0 15.0 15.0 15.0 15.0 15.0 15.0 15.0 15.0 15.0 15.0 15.0 15.0 13.3 10.4 10.7 11.4 9.7 9.5 9.2 7.7 8.2 6.1 6.0 4.8 6.4 4.8 4.2 2.1 0.6 0.6 1.0 0.3 0.1 0.2 0.6 1.3 0.2 0.1 0.2 0.1 4.6
15.0 15.0 15.0 15.0 15.0 15.0 15.0 15.0 13.8 15.0 15.0 15.0 10.8 8.8 8.3 10.7 9.2 8.6 9.7 7.2 8.0 10.0 8.2 2.7 5.3 8.0 4.0 3.1 3.1 4.5 6.1 4.6 2.4 1.3 0.2 0.2 0.7 4.0 0.4 0.1 0.1 0.2 2.3
15.0 15.0 15.0 15.0 15.0 14.9 14.8 12.2 11.8 10.4 10.3 10.2 7.7 8.9 10.8 10.8 12.1 9.4 9.4 9.5 10.1 14.7 7.1 12.2 4.8 1.9 3.9 2.4 3.4 5.9 1.8 0.4 2.1 5.2 0.7 0.2 0.3 0.7 0.3 0.1 0.1 0.1 1.6
15.0 15.0 15.0 15.0 14.9 13.3 11.8 11.1 10.8 10.1 9.5 8.1 10.4 9.3 9.4 10.1 12.5 11.0 10.3 13.2 8.9 15.0 11.2 5.8 6.9 5.8 2.3 3.2 4.3 1.8 2.6 6.7 2.5 3.3 0.2 0.2 0.2 0.3 0.1 0.1 0.1 0.1 0.6